"2009-07-08 00:00:00",1042862,8.87,103.3,4.271,0.565,21.86,109.9947,24.88,25.94,33.24,0,111.2,13.12,25.72,65.3
"2009-07-08 00:00:30",1042863,9.44,101.5,3.269,0.737,21.91,109.9803,24.84,25.93,33.17,0,111.2,13.12,25.68,63.5
"2009-07-08 00:01:00",1042864,8.45,103.3,3.468,0.253,21.97,109.97,24.82,25.91,33.16,0,111.2,13.12,25.66,65.3
"2009-07-08 00:01:30",1042865,8.14,102.3,4.238,0.398,21.92,109.9697,24.82,25.88,32.83,0,111.2,13.12,25.66,64.3
"2009-07-08 00:02:00",1042866,7.44,110.9,4.835,0.484,22.08,109.9697,24.82,25.87,32.98,0,111.2,13.12,25.66,72.9
"2009-07-08 00:02:30",1042867,8.41,107.9,3.047,0.573,22.11,109.9646,24.8,25.87,32.85,0,111.2,13.12,25.64,69.9
"2009-07-08 00:03:00",1042868,9.29,107.7,2.786,0.649,21.98,109.9515,24.77,25.84,32.63,0,111.2,13.12,25.61,69.7
"2009-07-08 00:03:30",1042869,8.09,109.8,2.726,0.434,22.01,109.943,24.75,25.83,32.4,0,111.2,13.12,25.59,71.8
"2009-07-08 00:04:00",1042870,9.01,114.1,2.533,0.404,21.94,109.9369,24.73,25.81,32.1,0,111.2,13.12,25.57,76.1
"2009-07-08 00:04:30",1042871,8.16,114.2,2.069,0.264,21.89,109.9369,24.73,25.8,32.06,0,111.2,13.12,25.57,76.2
"2009-07-08 00:05:00",1042872,8.63,108.8,2.206,0.385,21.89,109.9385,24.74,25.79,32.32,0,111.2,13.12,25.57,70.8
"2009-07-08 00:05:30",1042873,9.25,110.3,2.228,0.146,21.91,109.93,24.71,25.76,32.39,0,111.2,13.12,25.55,72.3
"2009-07-08 00:06:00",1042874,8.75,109.8,3.394,0.49,22.05,109.9149,24.68,25.77,32.63,0,111.2,13.12,25.51,71.8
"2009-07-08 00:06:30",1042875,8.06,109,4.571,0.556,22.07,109.9119,24.67,25.75,32.89,0,111.2,13.12,25.51,71.0
"2009-07-08 00:07:00",1042876,8.81,107.7,5.479,0.364,22.03,109.915,24.68,25.74,32.81,0,111.2,13.12,25.51,69.7
"2009-07-08 00:07:30",1042877,9.59,108.5,1.83,0.334,22.08,109.9211,24.69,25.7,32.28,0,111.2,13.12,25.53,70.5
"2009-07-08 00:08:00",1042878,9.06,107.6,1.992,0.39,22.05,109.918,24.68,25.7,32.08,0,111.2,13.12,25.52,69.6
"2009-07-08 00:08:30",1042879,8.34,107.4,3.774,0.623,22.18,109.9038,24.65,25.67,33.06,0,111.2,13.12,25.49,69.4
"2009-07-08 00:09:00",1042880,8.45,101.1,3.59,0.626,22.12,109.9011,24.64,25.69,32.68,0,111.2,13.12,25.48,63.1
"2009-07-08 00:09:30",1042881,9.7,106.2,3.475,0.325,22.09,109.8964,24.63,25.67,31.79,0,111.2,13.12,25.47,68.2
"2009-07-08 00:10:00",1042882,8.23,107.9,3.906,0.377,22.02,109.8964,24.63,25.66,31.57,0,111.2,13.12,25.47,69.9
"2009-07-08 00:10:30",1042883,8.36,101.5,3.97,0.308,22.06,109.897,24.63,25.64,32.36,0,111.2,13.12,25.47,63.5
"2009-07-08 00:11:00",1042884,8.76,100.8,2.221,0.533,21.96,109.8979,24.63,25.62,32.24,0,111.2,13.12,25.47,62.8
"2009-07-08 00:11:30",1042885,8.66,101.7,2.6,0.257,21.86,109.8959,24.63,25.63,31.93,0,111.2,13.12,25.46,63.7
"2009-07-08 00:12:00",1042886,8.52,101.2,3.284,0.498,21.88,109.8888,24.61,25.61,31.58,0,111.2,13.12,25.45,63.2
"2009-07-08 00:12:30",1042887,8.82,108.1,3.564,0.346,21.92,109.8836,24.6,25.62,31.93,0,111.1,13.12,25.43,70.1
"2009-07-08 00:13:00",1042888,8.28,108.5,2.246,0.584,21.91,109.8792,24.58,25.61,32.04,0,111.1,13.12,25.42,70.5
"2009-07-08 00:13:30",1042889,9.84,104.9,2.938,0.367,22.02,109.8775,24.58,25.6,32.2,0,111.1,13.13,25.42,66.9
"2009-07-08 00:14:00",1042890,9.42,101.5,2.853,0.247,22.06,109.8716,24.56,25.6,32.04,0,111.1,13.13,25.40,63.5
"2009-07-08 00:14:30",1042891,9.02,101.2,1.373,0.365,22.09,109.872,24.57,25.58,32.74,0,111.1,13.13,25.40,63.2
"2009-07-08 00:15:00",1042892,9.25,98,3.393,0.35,22.09,109.8717,24.56,25.59,32.45,0,111.1,13.13,25.40,60.0
"2009-07-08 00:15:30",1042893,9.19,101.1,3.335,0.265,22.09,109.8717,24.56,25.57,31.68,0,111.1,13.13,25.40,63.1
"2009-07-08 00:16:00",1042894,8.78,103.8,1.836,0.257,22.05,109.87,24.56,25.57,30.82,0,111.1,13.13,25.40,65.8
"2009-07-08 00:16:30",1042895,9.51,102.6,2.014,0.283,22.1,109.8565,24.53,25.55,31.53,0,111.1,13.13,25.36,64.6
"2009-07-08 00:17:00",1042896,9.08,101.4,4.015,0.282,22.07,109.8487,24.51,25.54,31.67,0,111.1,13.13,25.34,63.4
"2009-07-08 00:17:30",1042897,9.42,106.7,1.616,0.405,22.07,109.8461,24.5,25.54,31.34,0,111.1,13.13,25.34,68.7
"2009-07-08 00:18:00",1042898,9.04,105.4,2.748,0.239,22.06,109.8433,24.49,25.53,31.7,0,111.1,13.13,25.33,67.4
"2009-07-08 00:18:30",1042899,8.02,102.4,1.99,0.367,22.07,109.8394,24.48,25.52,31.89,0,111.1,13.13,25.32,64.4
"2009-07-08 00:19:00",1042900,7.914,104.4,4.051,0.412,22.05,109.8383,24.48,25.51,32.62,0,111.1,13.14,25.32,66.4
"2009-07-08 00:19:30",1042901,7.558,104.1,2.6,0.492,21.97,109.8383,24.48,25.5,32.36,0,111.1,13.14,25.32,66.1
"2009-07-08 00:20:00",1042902,8.18,102.6,2.9,0.47,22,109.8383,24.48,25.5,32.09,0,111.1,13.14,25.32,64.6
"2009-07-08 00:20:30",1042903,7.594,104.1,3.661,0.405,21.92,109.838,24.48,25.5,32.59,0,111.1,13.14,25.32,66.1
"2009-07-08 00:21:00",1042904,7.994,108,1.907,0.418,21.93,109.8369,24.48,25.49,31.52,0,111.1,13.14,25.31,70.0
"2009-07-08 00:21:30",1042905,7.174,101.1,4.942,0.222,21.92,109.8341,24.47,25.48,32.36,0,111.1,13.14,25.31,63.1
"2009-07-08 00:22:00",1042906,8.45,105.4,1.85,0.642,21.93,109.8262,24.45,25.48,32.59,0,111.1,13.14,25.29,67.4
"2009-07-08 00:22:30",1042907,8.97,105,2.284,0.22,21.9,109.8158,24.42,25.47,31.53,0,111.1,13.14,25.26,67.0
"2009-07-08 00:23:00",1042908,8.79,102.3,2.66,0.354,21.9,109.8061,24.4,25.46,32.05,0,111.1,13.14,25.23,64.3
"2009-07-08 00:23:30",1042909,8.47,101.8,3.189,0.268,21.93,109.8077,24.4,25.47,32.18,0,111.1,13.14,25.24,63.8
"2009-07-08 00:24:00",1042910,7.476,99,4.062,0.523,21.85,109.812,24.41,25.45,32.71,0,111.1,13.14,25.25,61.0
"2009-07-08 00:24:30",1042911,7.255,100.3,3.108,0.361,21.88,109.8138,24.42,25.44,33.13,0,111.1,13.13,25.25,62.3
"2009-07-08 00:25:00",1042912,8.59,97.5,2.015,0.526,21.84,109.81,24.41,25.43,33.08,0,111.1,13.13,25.24,59.5
"2009-07-08 00:25:30",1042913,8.33,105,3.986,0.221,21.92,109.8002,24.38,25.43,32.62,0,111.1,13.13,25.22,67.0
"2009-07-08 00:26:00",1042914,8.48,103.8,3.84,0.517,21.88,109.7945,24.37,25.43,32.55,0,111.1,13.13,25.20,65.8
"2009-07-08 00:26:30",1042915,8.44,103.6,3.551,0.212,21.88,109.7949,24.37,25.41,32.01,0,111.1,13.13,25.20,65.6
"2009-07-08 00:27:00",1042916,8.93,102.1,1.959,0.293,21.89,109.7971,24.37,25.39,32.31,0,111.1,13.13,25.21,64.1
"2009-07-08 00:27:30",1042917,9.61,100.2,0.93,0.093,21.88,109.7905,24.36,25.37,31.83,0,111.1,13.13,25.19,62.2
"2009-07-08 00:28:00",1042918,9.86,101.1,1.507,0.169,21.86,109.7725,24.31,25.35,31.92,0,111.1,13.13,25.15,63.1
"2009-07-08 00:28:30",1042919,10.13,103.3,1.192,0.109,21.87,109.7655,24.29,25.33,31.76,0,111.1,13.13,25.13,65.3
"2009-07-08 00:29:00",1042920,10.18,103,2.175,0.47,21.88,109.7662,24.29,25.34,31.77,0,111.1,13.13,25.13,65.0
"2009-07-08 00:29:30",1042921,10.56,102.9,0.893,0.408,21.83,109.763,24.29,25.32,31.85,0,111.1,13.14,25.12,64.9
"2009-07-08 00:30:00",1042922,10.79,103.9,1.756,0.289,21.83,109.7436,24.24,25.3,32.01,0,111.1,13.14,25.07,65.9
"2009-07-08 00:30:30",1042923,10.4,104.1,1.541,0.304,21.8,109.7365,24.22,25.27,32.21,0,111.1,13.14,25.05,66.1
"2009-07-08 00:31:00",1042924,10.29,105.4,1.122,0.282,21.79,109.738,24.22,25.26,32.19,0,111.1,13.14,25.06,67.4
"2009-07-08 00:31:30",1042925,10.68,104,2.027,0.165,21.82,109.7382,24.22,25.22,32.12,0,111.1,13.14,25.06,66.0
"2009-07-08 00:32:00",1042926,10.86,104,1.327,0.261,21.78,109.7183,24.17,25.23,32.05,0,111.1,13.14,25.01,66.0
"2009-07-08 00:32:30",1042927,10.67,104.1,1.632,0.276,21.76,109.709,24.15,25.21,32.62,0,111.1,13.14,24.98,66.1
"2009-07-08 00:33:00",1042928,10.18,103.3,1.562,0.238,21.73,109.7068,24.14,25.18,32.95,0,111.1,13.14,24.98,65.3
"2009-07-08 00:33:30",1042929,9.92,102.3,1.605,0.375,21.77,109.7037,24.13,25.17,32.98,0,111.1,13.14,24.97,64.3
"2009-07-08 00:34:00",1042930,9.26,100.4,2.39,0.361,21.72,109.6832,24.08,25.15,33.36,0,111.1,13.14,24.92,62.4
"2009-07-08 00:34:30",1042931,9.7,102.5,1.447,0.498,21.67,109.6733,24.06,25.14,33.86,0,111.1,13.14,24.89,64.5
"2009-07-08 00:35:00",1042932,9.99,104.1,2.472,0.347,21.68,109.6722,24.05,25.11,34.27,0,111.1,13.14,24.89,66.1
"2009-07-08 00:35:30",1042933,10.95,105.1,1.644,0.266,21.65,109.6565,24.01,25.1,34.86,0,111.1,13.15,24.85,67.1
"2009-07-08 00:36:00",1042934,10.52,104.6,1.952,0.272,21.65,109.6433,23.98,25.08,35.1,0,111.1,13.15,24.81,66.6
"2009-07-08 00:36:30",1042935,10.66,106.1,1.431,0.565,21.62,109.6394,23.97,25.04,35.37,0,111.1,13.15,24.80,68.1
"2009-07-08 00:37:00",1042936,11.28,104.8,1.066,0.247,21.66,109.6273,23.94,25.03,35.62,0,111.1,13.15,24.77,66.8
"2009-07-08 00:37:30",1042937,11.5,103.7,1.027,0.268,21.61,109.6076,23.89,25,36.13,0,111.1,13.15,24.72,65.7
"2009-07-08 00:38:00",1042938,11.54,104.7,1.585,0.456,21.58,109.6054,23.88,24.97,36.45,0,111.1,13.15,24.72,66.7
"2009-07-08 00:38:30",1042939,11.42,103.9,0.659,0.283,21.67,109.5874,23.83,24.95,36.31,0,111.1,13.15,24.67,65.9
"2009-07-08 00:39:00",1042940,10.84,104.6,0.928,0.142,21.67,109.572,23.79,24.93,36.11,0,111.1,13.15,24.63,66.6
"2009-07-08 00:39:30",1042941,10.5,105.8,0.813,0.107,21.71,109.5711,23.79,24.89,36.01,0,111.1,13.15,24.63,67.8
"2009-07-08 00:40:00",1042942,10.6,105.2,0.873,0.163,21.67,109.5512,23.74,24.86,36.08,0,111.1,13.15,24.58,67.2
"2009-07-08 00:40:30",1042943,10.67,104.5,1.064,0.148,21.6,109.5385,23.71,24.84,36.15,0,111.1,13.15,24.54,66.5
"2009-07-08 00:41:00",1042944,10.58,105.7,0.757,0.345,21.62,109.5382,23.71,24.83,35.99,0,111.1,13.15,24.54,67.7
"2009-07-08 00:41:30",1042945,10.78,105.7,0.752,0.194,21.58,109.5352,23.7,24.8,35.95,0,111.1,13.14,24.54,67.7
"2009-07-08 00:42:00",1042946,10.81,105.5,0.892,0.133,21.56,109.5249,23.67,24.77,35.64,0,111.1,13.14,24.51,67.5
"2009-07-08 00:42:30",1042947,10.59,106.1,0.608,0.13,21.63,109.5119,23.64,24.76,35.68,0,111.1,13.15,24.48,68.1
"2009-07-08 00:43:00",1042948,10.84,105.7,0.785,0.165,21.6,109.5119,23.64,24.74,36.03,0,111.1,13.14,24.48,67.7
"2009-07-08 00:43:30",1042949,10.78,106.8,0.712,0.11,21.6,109.5181,23.66,24.71,36.08,0,111.1,13.14,24.49,68.8
"2009-07-08 00:44:00",1042950,10.93,105.3,1.034,0.173,21.56,109.5185,23.66,24.69,36.65,0,111.1,13.14,24.49,67.3
"2009-07-08 00:44:30",1042951,10.82,106.3,0.882,0.239,21.57,109.5053,23.62,24.69,36.64,0,111.1,13.14,24.46,68.3
"2009-07-08 00:45:00",1042952,10.71,105.7,1.373,0.086,21.62,109.5004,23.61,24.66,35.98,0,111,13.14,24.45,67.7
"2009-07-08 00:45:30",1042953,10.79,103.8,2.532,0.274,21.53,109.4982,23.61,24.65,36.54,0,111.1,13.15,24.44,65.8
"2009-07-08 00:46:00",1042954,10.37,103.1,2.108,0.189,21.59,109.4985,23.61,24.64,37.23,0,111,13.14,24.44,65.1
"2009-07-08 00:46:30",1042955,9.87,99.6,2.783,0.381,21.55,109.498,23.6,24.62,37.47,0,111,13.15,24.44,61.6
"2009-07-08 00:47:00",1042956,10.09,102.9,2.257,0.306,21.57,109.4817,23.56,24.62,37.45,0,111,13.15,24.40,64.9
"2009-07-08 00:47:30",1042957,9.86,101.5,1.507,0.392,21.55,109.4708,23.54,24.58,37.65,0,111,13.15,24.37,63.5
"2009-07-08 00:48:00",1042958,9.85,98.2,1.803,0.393,21.56,109.466,23.52,24.57,37.66,0,111,13.15,24.36,60.2
"2009-07-08 00:48:30",1042959,10.09,99,1.289,0.124,21.63,109.466,23.52,24.56,37.45,0,111,13.15,24.36,61.0
"2009-07-08 00:49:00",1042960,10.05,98.2,1.155,0.117,21.6,109.4704,23.53,24.55,36.79,0,111,13.15,24.37,60.2
"2009-07-08 00:49:30",1042961,9.64,97.4,2.399,0.327,21.53,109.4518,23.49,24.52,37.42,0,111,13.15,24.32,59.4
"2009-07-08 00:50:00",1042962,9.94,96.3,1.748,0.173,21.57,109.4461,23.47,24.52,37.2,0,111,13.15,24.31,58.3
"2009-07-08 00:50:30",1042963,9.89,95.6,1.862,0.169,21.55,109.4411,23.46,24.5,37.02,0,111,13.15,24.29,57.6
"2009-07-08 00:51:00",1042964,9.81,94.1,2.224,0.536,21.48,109.44,23.46,24.5,37.5,0,111,13.15,24.29,56.1
"2009-07-08 00:51:30",1042965,9.26,95.8,2.084,0.282,21.55,109.44,23.46,24.47,37.53,0,111,13.16,24.29,57.8
"2009-07-08 00:52:00",1042966,9.18,93.4,3.28,0.373,21.53,109.4403,23.46,24.46,37.43,0,111,13.16,24.29,55.4
"2009-07-08 00:52:30",1042967,9.51,93.9,2.067,0.247,21.58,109.4392,23.45,24.45,37.28,0,111,13.16,24.29,55.9
"2009-07-08 00:53:00",1042968,9.24,91.5,2.506,0.31,21.46,109.4274,23.42,24.44,37.59,0,111,13.16,24.26,53.5
"2009-07-08 00:53:30",1042969,9.39,92.9,2.595,0.197,21.51,109.4156,23.39,24.42,37.51,0,111,13.16,24.23,54.9
"2009-07-08 00:54:00",1042970,9.32,92,2.953,0.36,21.49,109.4114,23.38,24.43,37.59,0,111,13.16,24.22,54.0
"2009-07-08 00:54:30",1042971,9.79,90.4,1.059,0.112,21.46,109.4069,23.37,24.4,37.4,0,111,13.16,24.20,52.4
"2009-07-08 00:55:00",1042972,9.65,91.4,2.608,0.551,21.47,109.4066,23.37,24.4,37.35,0,111,13.16,24.20,53.4
"2009-07-08 00:55:30",1042973,9.94,89.6,1.881,0.219,21.46,109.4066,23.37,24.4,37.33,0,111,13.16,24.20,51.6
"2009-07-08 00:56:00",1042974,9.95,89.1,0.785,0.165,21.48,109.4066,23.37,24.39,37.01,0,111,13.16,24.20,51.1
"2009-07-08 00:56:30",1042975,9.75,89.6,1.074,0.191,21.5,109.4066,23.37,24.39,36.45,0,111,13.16,24.20,51.6
"2009-07-08 00:57:00",1042976,9.88,89.8,0.986,0.203,21.5,109.4066,23.37,24.38,36.76,0,111,13.16,24.20,51.8
"2009-07-08 00:57:30",1042977,10.13,88.5,0.522,0.1,21.47,109.4066,23.37,24.36,37.19,0,111,13.16,24.20,50.5
"2009-07-08 00:58:00",1042978,10.16,88.7,0.421,0.082,21.48,109.4063,23.37,24.36,36.51,0,111,13.16,24.20,50.7
"2009-07-08 00:58:30",1042979,9.98,89.6,0.67,0.124,21.45,109.4058,23.37,24.35,36.3,0,111,13.16,24.20,51.6
"2009-07-08 00:59:00",1042980,9.91,90,0.472,0.188,21.46,109.4069,23.37,24.35,36.05,0,111,13.15,24.20,52.0
"2009-07-08 00:59:30",1042981,9.92,89.3,0.509,0.077,21.42,109.4064,23.37,24.35,36.32,0,111,13.15,24.20,51.3
"2009-07-08 01:00:00",1042982,10.06,89.9,0.554,0.215,21.4,109.4064,23.37,24.36,37.24,0,111,13.15,24.20,51.9
"2009-07-08 01:00:30",1042983,10.16,90.3,1.185,0.241,21.46,109.4076,23.37,24.35,37.28,0,111,13.15,24.21,52.3
"2009-07-08 01:01:00",1042984,9.9,90.5,1.484,0.158,21.49,109.4065,23.37,24.35,36.97,0,111,13.15,24.20,52.5
"2009-07-08 01:01:30",1042985,9.83,90.4,1.51,0.323,21.52,109.407,23.37,24.33,36.1,0,111,13.15,24.20,52.4
"2009-07-08 01:02:00",1042986,9.75,92.2,1.129,0.363,21.52,109.4057,23.37,24.34,35.59,0,111,13.15,24.20,54.2
"2009-07-08 01:02:30",1042987,9.68,91.4,1.154,0.281,21.43,109.4082,23.37,24.33,37.01,0,111,13.15,24.21,53.4
"2009-07-08 01:03:00",1042988,9.95,93.3,1.322,0.225,21.55,109.4024,23.36,24.33,36.31,0,111,13.15,24.19,55.3
"2009-07-08 01:03:30",1042989,9.75,94.5,1.647,0.265,21.58,109.403,23.36,24.34,35.43,0,111,13.15,24.19,56.5
"2009-07-08 01:04:00",1042990,9.71,93.8,2.08,0.143,21.55,109.4074,23.37,24.33,35.42,0,111,13.16,24.21,55.8
"2009-07-08 01:04:30",1042991,9.9,96.3,1.312,0.208,21.6,109.4065,23.37,24.33,36.21,0,111,13.16,24.20,58.3
"2009-07-08 01:05:00",1042992,9.89,97.7,1.103,0.144,21.61,109.4073,23.37,24.33,35.47,0,111,13.16,24.21,59.7
"2009-07-08 01:05:30",1042993,10,97.8,1.203,0.221,21.55,109.412,23.38,24.33,36.03,0,111,13.16,24.22,59.8
"2009-07-08 01:06:00",1042994,9.56,95.3,2.468,0.264,21.42,109.408,23.37,24.34,37.64,0,111,13.16,24.21,57.3
"2009-07-08 01:06:30",1042995,10.46,96.8,1.661,0.251,21.46,109.4022,23.36,24.34,38.31,0,111,13.17,24.19,58.8
"2009-07-08 01:07:00",1042996,10.26,95.6,2.185,0.466,21.4,109.3995,23.35,24.36,39.06,0,111,13.17,24.19,57.6
"2009-07-08 01:07:30",1042997,9.98,98.8,2.475,0.465,21.39,109.3943,23.34,24.35,40.37,0,111,13.17,24.17,60.8
"2009-07-08 01:08:00",1042998,10.09,97,2.333,0.503,21.32,109.3962,23.34,24.32,40.92,0,111,13.17,24.18,59.0
"2009-07-08 01:08:30",1042999,10.62,97.2,2.355,0.712,21.3,109.3952,23.34,24.33,41.17,0,111,13.17,24.17,59.2
"2009-07-08 01:09:00",1043000,10.79,99.1,0.893,0.1,21.39,109.3777,23.3,24.32,41.64,0,111,13.17,24.13,61.1
"2009-07-08 01:09:30",1043001,10.8,99.6,0.81,0.134,21.4,109.3668,23.27,24.3,41.55,0,111,13.17,24.10,61.6
"2009-07-08 01:10:00",1043002,10.6,98.6,1.079,0.169,21.36,109.3618,23.26,24.28,41.98,0,111,13.17,24.09,60.6
"2009-07-08 01:10:30",1043003,10.74,98.2,0.926,0.186,21.38,109.3362,23.19,24.24,42.15,0,111,13.17,24.02,60.2
"2009-07-08 01:11:00",1043004,10.89,98.8,1.092,0.208,21.3,109.3331,23.18,24.24,42.89,0,111,13.17,24.01,60.8
"2009-07-08 01:11:30",1043005,10.63,100,2.068,0.2,21.24,109.3146,23.13,24.21,43.18,0,111,13.17,23.97,62.0
"2009-07-08 01:12:00",1043006,11.03,99,2.659,0.323,21.23,109.2997,23.1,24.17,43.63,0,111,13.17,23.93,61.0
"2009-07-08 01:12:30",1043007,10.61,100.4,1.542,0.427,21.27,109.2882,23.07,24.15,44.08,0,111,13.17,23.90,62.4
"2009-07-08 01:13:00",1043008,9.71,94.9,4.989,0.419,21.12,109.2666,23.01,24.13,44.43,0,111,13.17,23.84,56.9
"2009-07-08 01:13:30",1043009,9.83,99.4,3.145,0.651,21.14,109.2614,23,24.1,44.49,0,111,13.17,23.83,61.4
"2009-07-08 01:14:00",1043010,9.99,99.9,1.886,0.469,21.18,109.2415,22.95,24.06,45.14,0,111,13.17,23.78,61.9
"2009-07-08 01:14:30",1043011,10.26,99.1,1.61,0.483,21.19,109.2374,22.94,24.03,45.32,0,111,13.17,23.77,61.1
"2009-07-08 01:15:00",1043012,10.89,99.9,0.83,0.289,21.24,109.2119,22.87,24.01,45.83,0,111,13.17,23.70,61.9
"2009-07-08 01:15:30",1043013,10.8,101.3,0.803,0.148,21.2,109.2043,22.85,23.98,45.37,0,111,13.17,23.68,63.3
"2009-07-08 01:16:00",1043014,10.98,101.6,1.45,0.213,21.28,109.181,22.79,23.93,45.23,0,111,13.17,23.62,63.6
"2009-07-08 01:16:30",1043015,10.71,100.6,0.426,0.066,21.28,109.1737,22.77,23.9,45.29,0,111,13.17,23.60,62.6
"2009-07-08 01:17:00",1043016,10.52,103.1,1.091,0.186,21.18,109.1661,22.75,23.87,45.48,0,111,13.17,23.58,65.1
"2009-07-08 01:17:30",1043017,10.71,100.7,0.829,0.216,21.26,109.1433,22.69,23.83,45.4,0,111,13.17,23.53,62.7
"2009-07-08 01:18:00",1043018,10.72,102.4,0.69,0.127,21.15,109.14,22.69,23.8,45.87,0,111,13.17,23.52,64.4
"2009-07-08 01:18:30",1043019,10.32,102.9,1.33,0.221,21.13,109.1329,22.67,23.78,46.11,0,111,13.17,23.50,64.9
"2009-07-08 01:19:00",1043020,10.52,102.7,0.956,0.283,21.21,109.109,22.61,23.73,45.77,0,111,13.17,23.44,64.7
"2009-07-08 01:19:30",1043021,10.65,101.2,0.938,0.143,21.21,109.1062,22.6,23.71,45.44,0,111,13.17,23.43,63.2
"2009-07-08 01:20:00",1043022,10.45,101.3,1.158,0.174,21.16,109.1029,22.59,23.69,45.61,0,111,13.17,23.42,63.3
"2009-07-08 01:20:30",1043023,10.37,102.2,0.893,0.109,20.99,109.0821,22.54,23.67,45.64,0,111,13.17,23.37,64.2
"2009-07-08 01:21:00",1043024,10.46,102.8,0.982,0.184,20.87,109.0725,22.51,23.65,46.32,0,111,13.17,23.34,64.8
"2009-07-08 01:21:30",1043025,10.66,101.2,1.429,0.302,20.81,109.0725,22.51,23.62,46.6,0,111,13.17,23.34,63.2
"2009-07-08 01:22:00",1043026,10.64,102.1,1.407,0.159,20.74,109.0725,22.51,23.6,46.86,0,111,13.17,23.34,64.1
"2009-07-08 01:22:30",1043027,10.53,103.4,1.076,0.185,20.67,109.0708,22.51,23.6,47.09,0,111,13.18,23.34,65.4
"2009-07-08 01:23:00",1043028,10.6,103,1.002,0.136,20.67,109.0585,22.48,23.56,47.11,0,111,13.18,23.31,65.0
"2009-07-08 01:23:30",1043029,10.57,103.9,1.25,0.146,20.66,109.0461,22.44,23.56,47.15,0,111,13.18,23.27,65.9
"2009-07-08 01:24:00",1043030,10.47,104.3,1.162,0.195,20.64,109.0391,22.43,23.53,47.14,0,111,13.18,23.26,66.3
"2009-07-08 01:24:30",1043031,10.39,103.6,1.216,0.25,20.66,109.0388,22.43,23.53,47.22,0,111,13.18,23.26,65.6
"2009-07-08 01:25:00",1043032,10.21,101.5,1.385,0.319,20.63,109.0388,22.43,23.51,47.3,0,111,13.18,23.26,63.5
"2009-07-08 01:25:30",1043033,9.81,103.5,2.059,0.18,20.57,109.0388,22.43,23.5,47.57,0,111,13.18,23.26,65.5
"2009-07-08 01:26:00",1043034,9.73,102.2,1.851,0.33,20.57,109.0365,22.42,23.49,47.71,0,111,13.18,23.25,64.2
"2009-07-08 01:26:30",1043035,9.75,103.5,2.149,0.242,20.56,109.0273,22.4,23.47,47.71,0,111,13.18,23.23,65.5
"2009-07-08 01:27:00",1043036,9.19,103.2,1.572,0.199,20.51,109.0157,22.37,23.46,47.87,0,111,13.18,23.20,65.2
"2009-07-08 01:27:30",1043037,9.69,103.3,1.491,0.21,20.52,109.0079,22.35,23.45,47.78,0,111,13.18,23.18,65.3
"2009-07-08 01:28:00",1043038,9.68,102.2,1.164,0.265,20.54,109.0051,22.34,23.43,47.7,0,111,13.18,23.17,64.2
"2009-07-08 01:28:30",1043039,9.66,102.2,1.961,0.442,20.51,109.0051,22.34,23.42,47.71,0,111,13.18,23.17,64.2
"2009-07-08 01:29:00",1043040,10.07,103.3,1.694,0.625,20.51,109.0051,22.34,23.41,47.77,0,111,13.18,23.17,65.3
"2009-07-08 01:29:30",1043041,9.84,102.8,1.558,0.503,20.45,109.0051,22.34,23.39,48.02,0,111,13.18,23.17,64.8
"2009-07-08 01:30:00",1043042,10.29,103.3,2.469,0.2,20.51,109.0022,22.33,23.38,47.94,0,111,13.18,23.16,65.3
"2009-07-08 01:30:30",1043043,10.13,101.2,2.659,0.286,20.53,108.9865,22.29,23.38,47.96,0,111,13.18,23.12,63.2
"2009-07-08 01:31:00",1043044,9.78,103.3,3.352,0.372,20.42,108.9778,22.27,23.37,48.15,0,111,13.18,23.10,65.3
"2009-07-08 01:31:30",1043045,10.45,99.8,2.265,0.383,20.55,108.9716,22.25,23.34,48.14,0,111,13.18,23.08,61.8
"2009-07-08 01:32:00",1043046,10.3,99.4,2.241,0.274,20.49,108.9713,22.25,23.34,48.3,0,111,13.18,23.08,61.4
"2009-07-08 01:32:30",1043047,9.98,99.7,2.737,0.396,20.44,108.9713,22.25,23.33,48.5,0,111,13.18,23.08,61.7
"2009-07-08 01:33:00",1043048,10.17,99.6,2.059,0.382,20.37,108.9713,22.25,23.31,48.63,0,111,13.17,23.08,61.6
"2009-07-08 01:33:30",1043049,9.46,100.8,2.271,0.62,20.41,108.9593,22.22,23.29,48.56,0,111,13.17,23.05,62.8
"2009-07-08 01:34:00",1043050,9.17,92.7,3.042,0.603,20.37,108.9455,22.19,23.3,48.93,0,111,13.17,23.02,54.7
"2009-07-08 01:34:30",1043051,9.84,97.4,2.806,0.49,20.42,108.9379,22.17,23.26,48.77,0,111,13.17,23.00,59.4
"2009-07-08 01:35:00",1043052,8.36,91.5,4.698,0.416,20.32,108.9376,22.17,23.25,48.91,0,111,13.17,23.00,53.5
"2009-07-08 01:35:30",1043053,7.991,90.3,2.792,0.612,20.29,108.9376,22.17,23.25,49.2,0,111,13.17,23.00,52.3
"2009-07-08 01:36:00",1043054,8.53,88.2,2.615,0.625,20.32,108.9323,22.15,23.22,49.1,0,111,13.17,22.98,50.2
"2009-07-08 01:36:30",1043055,7.621,84.2,3.735,0.774,20.24,108.9202,22.12,23.2,49.38,0,111,13.17,22.95,46.2
"2009-07-08 01:37:00",1043056,8.32,82.4,2.637,0.367,20.16,108.9126,22.1,23.21,49.64,0,111,13.17,22.93,44.4
"2009-07-08 01:37:30",1043057,7.694,71.51,7.723,0.513,20.11,108.9061,22.09,23.18,50.15,0,111,13.17,22.91,33.5
"2009-07-08 01:38:00",1043058,6.942,61.08,7.246,0.556,19.94,108.9045,22.08,23.17,50.59,0,111,13.17,22.91,23.1
"2009-07-08 01:38:30",1043059,7.852,59.65,3.33,0.62,19.96,108.9048,22.08,23.17,50.77,0,111,13.18,22.91,21.7
"2009-07-08 01:39:00",1043060,8.15,70.85,3.05,0.893,19.96,108.9002,22.07,23.15,50.68,0,111,13.18,22.90,32.8
"2009-07-08 01:39:30",1043061,9.12,73.12,1.739,0.331,19.96,108.8775,22.01,23.14,50.7,0,111,13.18,22.84,35.1
"2009-07-08 01:40:00",1043062,8.97,72.13,3.392,0.555,19.88,108.8708,21.99,23.12,51.1,0,111,13.18,22.82,34.1
"2009-07-08 01:40:30",1043063,8.47,71.78,1.842,0.46,19.92,108.8685,21.99,23.09,51.29,0,111,13.18,22.82,33.8
"2009-07-08 01:41:00",1043064,7.748,73.05,2.064,0.599,20.11,108.8494,21.94,23.07,51.23,0,111,13.18,22.77,35.1
"2009-07-08 01:41:30",1043065,6.814,76.62,2.394,0.172,20,108.837,21.91,23.04,51.4,0,111,13.19,22.74,38.6
"2009-07-08 01:42:00",1043066,7.558,73.1,1.984,0.55,20.06,108.8386,21.91,23.03,51.44,0,111,13.18,22.74,35.1
"2009-07-08 01:42:30",1043067,7.987,73.74,2.037,0.273,20.1,108.8214,21.87,23,51.25,0,111,13.18,22.70,35.7
"2009-07-08 01:43:00",1043068,8.67,76.07,1.177,0.19,20.06,108.8057,21.83,22.99,51.09,0,111,13.19,22.66,38.1
"2009-07-08 01:43:30",1043069,9.02,77.19,1.723,0.66,20.08,108.8061,21.83,22.95,50.75,0,111,13.19,22.66,39.2
"2009-07-08 01:44:00",1043070,8.89,79.13,1.012,0.21,20.07,108.786,21.78,22.92,50.49,0,111,13.19,22.60,41.1
"2009-07-08 01:44:30",1043071,8.66,80.9,2.206,0.292,20.09,108.7748,21.75,22.88,50.55,0,111,13.19,22.58,42.9
"2009-07-08 01:45:00",1043072,8.05,82.2,1.835,0.282,20.05,108.7725,21.74,22.87,50.59,0,111,13.19,22.57,44.2
"2009-07-08 01:45:30",1043073,8.46,83.6,1.402,0.23,20.02,108.7499,21.68,22.85,50.53,0,111,13.19,22.51,45.6
"2009-07-08 01:46:00",1043074,8.65,86.9,2.585,0.232,19.91,108.7423,21.66,22.81,50.38,0,111,13.19,22.49,48.9
"2009-07-08 01:46:30",1043075,9.35,90.8,1.057,0.143,19.88,108.7301,21.63,22.78,50.11,0,111,13.19,22.46,52.8
"2009-07-08 01:47:00",1043076,9.04,93.2,1.255,0.184,20.02,108.7104,21.58,22.75,50.28,0,111,13.19,22.41,55.2
"2009-07-08 01:47:30",1043077,9.03,96.1,1.363,0.262,20.09,108.7053,21.57,22.72,50.49,0,111,13.19,22.40,58.1
"2009-07-08 01:48:00",1043078,9.03,97,1.377,0.328,20.03,108.6835,21.51,22.68,50.58,0,111,13.19,22.34,59.0
"2009-07-08 01:48:30",1043079,9.66,96.4,1.17,0.334,19.98,108.6807,21.51,22.65,50.27,0,111,13.19,22.33,58.4
"2009-07-08 01:49:00",1043080,9.72,97.5,0.912,0.54,20.01,108.6664,21.47,22.61,50.21,0,111,13.19,22.30,59.5
"2009-07-08 01:49:30",1043081,10.42,97.8,1.359,0.183,20.05,108.6548,21.44,22.58,50.23,0,111,13.19,22.27,59.8